Zurück zum Katalog

TIANPING 3A-01

AktivWissenschaftSSO
NORAD 61614·PAYLOAD·🇨🇳 China

Gestartet Oct 22, 2024 von Taiyuan Satellite Launch Center

Loading…

Nächste Überflüge (nächste 24 Stunden)

TLE

AktuellSource: Space-Track

Epoche: Sep 14, 2026, 15:24 UTC

1 61614U 24189A   26257.64200204  .00002209  00000-0  17708-3 0  9991
2 61614  97.5137 274.9853 0003336 112.9351 247.2226 15.01097892103907

Verfolge TIANPING 3A-01 in Echtzeit mit AllMySat

Download on the App Store